Voltar ao catálogo

ARIANE 44L+ DEB

AtivoGTO
NORAD 23238·DEBRIS·🇫🇷 France

Lançado Apr 15, 1992 de Guiana Space Centre

Loading…

TLE

EnvelhecendoSource: Space-Track

Época: Sep 14, 2026, 20:47 UTC

1 23238U 92021H   26257.86610049 -.00000623  00000-0 -38226-1 0  9993
2 23238   3.9601 325.8572 7023214 194.8439 155.9921  2.24464550284196

Acompanhe ARIANE 44L+ DEB em tempo real com AllMySat

Download on the App Store